Flag for Nepal Weather past 2 weeks in Pokhara, Nepal

Now
70 °F

Partly cloudy.


Feels Like: 70 °F
Forecast: 65 / 84 °F
Wind: 2 mph from North

Location: Kathmandu Airport

Current Time: Aug 31, 2015 at 6:55:29 AM

Latest Report: Aug 31, 2015 at 5:35 AM


Visibility: 4 mi

Pressure: 29.83 "Hg (27.03 "Hg at 847m altitude)

Humidity: 94%

Dew point: 68 °F

Historic Weather in Pokhara — Graph

°F

Pokhara temperature yesterday

Maximum temperature yesterday: 86 °F (at 2:35 PM)
Minimum temperature yesterday: 72 °F (at 12:35 AM)
Average temperature yesterday: 77 °F

Past Weeks' High & Low Weather Summary

 TemperatureHumidityPressure
High86 °F (Aug 30, 2:35 PM)100% (Aug 16, 11:35 PM)29.95 "Hg (Aug 16, 11:35 PM)
Low66 °F (Aug 20, 11:35 PM)58% (Aug 16, 12:35 PM)29.77 "Hg (Aug 20, 3:35 PM)
Average74 °F86%29.86 "Hg
* Reported Aug 16 5:35 AM — Aug 31 5:35 AM, Pokhara, Weather by CustomWeather, © 2015

Note: Actual official high and low records may vary slightly from our data, if they occured in-between our weather recording intervals... More about our weather records

Advertising

Pokhara weather history for previous 24 hours

 ConditionsComfort  
Time TempWeatherWind HumidityBarometerVisibility
5:35 AM
Mon, Aug 31
70 °FPartly cloudy.2 mph94%29.83 "Hg4 mi
4:35 AM70 °FMild.N/A94%29.83 "HgN/A
10:35 PM
Sun, Aug 30
73 °FThunderstorms. Mostly cloudy.6 mph89%29.89 "Hg3 mi
7:35 PM75 °FThunderstorms. Partly cloudy.6 mph83%29.83 "Hg4 mi
6:35 PM77 °FRain. Broken clouds.8 mph79%29.80 "Hg4 mi
5:35 PM79 °FScattered clouds.7 mph74%29.77 "HgN/A
4:35 PM82 °FScattered clouds.7 mph66%29.77 "HgN/A
3:35 PM82 °FScattered clouds.8 mph66%29.80 "HgN/A
2:35 PM86 °FScattered clouds.6 mph59%29.80 "HgN/A
1:35 PM82 °FScattered clouds.5 mph66%29.83 "HgN/A
12:35 PM81 °FBroken clouds.7 mph66%29.86 "HgN/A
11:35 AM82 °FScattered clouds.5 mph62%29.86 "HgN/A
10:35 AM79 °FBroken clouds.5 mph74%29.89 "Hg5 mi
9:35 AM77 °FBroken clouds.3 mph74%29.89 "Hg4 mi
8:35 AM73 °FLight rain. Broken clouds.No wind83%29.89 "Hg4 mi
7:35 AM73 °FBroken clouds.2 mph83%29.86 "Hg4 mi
6:35 AM72 °FBroken clouds.2 mph94%29.86 "Hg4 mi
Weather by CustomWeather, © 2015

See weather overviewHow to use our weather pages